Terug naar catalogus

CZ-6A DEB

ActiefSSO
NORAD 54526·DEBRIS·🇨🇳 China

Gelanceerd Nov 11, 2022 vanaf Taiyuan Satellite Launch Center

Loading…

Volgende Passages (komende 24 uur)

TLE

VersSource: Space-Track

Epoch: Sep 14, 2026, 10:53 UTC

1 54526U 22151KE  26257.45354501  .00000153  00000-0  10917-3 0  9992
2 54526  98.8473 254.6994 0055516 108.9100 251.8100 14.10164350197271

Volg CZ-6A DEB in realtime met AllMySat

Download on the App Store